Location: Unspecified
(35.6961°N, 0.0000°E)
Time: 08:17:47
(UTC+00:00)

Hubble Space Telescope - Pass Details

Date: 27 April 2019
Orbit: 536 x 540 km, 28.5° (Epoch: 18 May)

Event Time Altitude Azimuth Distance (km) Brightness Sun altitude
Exits shadow 04:13:43 17° 224° (SW) 1,414 2.3 -12.0°
Maximum altitude 04:16:06 28° 175° (S) 1,015 2.0 -11.5°
Drops below altitude 10° 04:19:41 10° 115° (ESE) 1,787 4.0 -10.9°
Sets 04:22:09 0° 104° (ESE) 2,679 5.2 -10.4°
